sat.trackr.live / text

‹ back to catalog

STARLINK-4774

NORAD 56138 · 2023-046AY

PAYLOAD ACTIVE UNKNOWN

§ Identity

Operator
Country
US
Launch date
2023-03-29
Launch site
AFETR
Launch vehicle
Mass (kg)
RCS (m²)

Purposes: comms

External: N2YO · Heavens-Above · Gunter

§ Orbital elements

Epoch: 2026-09-20T21:44:13.992000Z

Period
94.26 min
Inclination
43.0002°
Eccentricity
0.0000329
Mean motion
15.27633677 rev/d
Perigee alt
482.7 km
Apogee alt
483.1 km
Semi-major
6,861.0 km
B*
-3.1355e-4
RAAN
124.6986°
Arg perigee
254.1115°
Mean anomaly
105.9700°
Rev number
19,205

§ Raw data

STARLINK-47741 56138U 23046AY  26263.90571750 -.00008894  00000+0 -31355-3 0  99912 56138  43.0002 124.6986 0000329 254.1115 105.9700 15.27633677192059

JSON: /api/v1/satellites/56138 · /tle

For live sub-satellite position, see the globe view (requires WebGL).

§ Visibility from observer

Set your observer location to see the next 7 days of passes ≥ 10°. The values pass through the URL so the page stays shareable.

No JS? Fill the form by hand. The geolocation button needs JavaScript.